DW6780 Weather Reports


time (UTC)temp
C
wind
direction
speed
KPH
gust
KPH
rain 1hr
cm
rain 24hr
cm
rain mn
cm
humidity
%
barometer
mb
20260507010050 17 348 0.0 0.0 0.00 0.00 0.00 84 1009.9
20260507004549 17 348 0.0 0.0 0.00 0.00 0.00 83 1009.6
20260507003048 17 348 0.0 0.0 0.00 0.00 0.00 84 1009.5
20260507001607 17 348 0.0 0.0 0.00 0.00 0.00 84 1009.4
20260507000048 17 348 0.0 0.0 0.00 0.00 0.00 83 1009.4
20260506234547 17 348 0.0 0.0 0.00 0.00 0.00 83 1009.1
20260506233048 17 348 0.0 0.0 0.00 0.00 0.00 83 1008.9
20260506231548 17 348 0.0 0.0 0.00 0.00 0.00 83 1009.0
20260506230045 17 348 0.0 0.0 0.00 0.00 0.00 83 1008.9
20260506224545 16 348 0.0 0.0 0.00 0.00 0.00 83 1009.0
20260506223101 16 348 0.0 0.0 0.00 0.00 0.00 83 1008.9
20260506221544 16 348 0.0 0.0 0.00 0.00 0.00 83 1008.8
20260506220042 16 348 0.0 0.0 0.00 0.00 0.00 82 1008.9
20260506214541 17 349 0.0 0.0 0.00 0.00 0.00 81 1008.6
20260506213038 17 350 0.0 0.0 0.00 0.00 0.00 81 1008.6
20260506211537 18 350 0.0 0.0 0.00 0.00 0.00 79 1008.6
20260506210039 18 350 0.0 0.0 0.00 0.00 0.00 78 1008.7
20260506204535 19 350 0.0 0.0 0.00 0.00 0.00 78 1008.8
20260506203042 20 351 0.0 0.0 0.00 0.00 0.00 76 1008.9
20260506201534 21 351 0.0 0.0 0.00 0.00 0.00 76 1008.6
20260506200039 21 355 0.0 0.0 0.00 0.00 0.00 75 1008.6
20260506194532 21 355 0.0 0.0 0.00 0.00 0.00 79 1008.3
20260506193032 21 355 0.0 0.0 0.00 0.00 0.00 78 1008.2
20260506191533 22 355 0.0 0.0 0.00 0.00 0.00 77 1008.2
20260506190031 24 355 0.0 0.0 0.00 0.00 0.00 76 1008.4
20260506184531 24 355 0.0 0.0 0.00 0.00 0.00 76 1008.2
20260506183031 25 355 0.0 0.0 0.00 0.00 0.00 76 1008.1
20260506181535 25 355 0.0 0.0 0.00 0.00 0.00 74 1008.0
20260506180038 25 355 0.0 0.0 0.00 0.00 0.00 76 1008.0
20260506174530 23 355 0.0 0.0 0.00 0.00 0.00 79 1007.9
20260506173028 23 355 0.0 0.0 0.00 0.00 0.00 79 1007.8
20260506171543 22 355 0.0 0.0 0.00 0.00 0.00 82 1008.2
20260506170026 21 355 0.0 0.0 0.00 0.00 0.00 83 1007.9
20260506164526 20 355 0.0 0.0 0.00 0.00 0.00 84 1008.0
20260506163028 18 355 0.0 0.0 0.00 0.00 0.00 89 1008.5
20260506161536 17 355 0.0 0.0 0.00 0.00 0.00 90 1008.9
20260506160023 18 355 0.0 0.0 0.00 0.00 0.00 90 1009.3
20260506154519 18 355 0.0 0.0 0.00 0.00 0.00 89 1009.2
20260506153014 20 5 0.0 0.0 0.00 0.00 0.00 87 1008.9
20260506151510 21 5 0.0 0.0 0.00 0.00 0.00 84 1008.1
20260506150007 25 5 0.0 0.0 0.00 0.00 0.00 87 1007.7
20260506144504 25 5 0.0 0.0 0.00 0.00 0.00 88 1006.9
20260506143001 25 5 0.0 0.0 0.00 0.00 0.00 87 1006.6
20260506141559 25 5 0.0 0.0 0.00 0.00 0.00 89 1006.1
20260506140056 24 5 0.0 0.0 0.00 0.00 0.00 90 1006.6
20260506134616 24 5 0.0 0.0 0.00 0.00 0.00 91 1006.3
20260506133053 23 5 0.0 0.0 0.00 0.00 0.00 92 1006.1
20260506131607 23 5 0.0 0.0 0.00 0.00 0.00 92 1006.1
20260506130049 23 5 0.0 0.0 0.00 0.00 0.00 93 1005.8
20260506124548 23 5 0.0 0.0 0.00 0.00 0.00 93 1005.5
20260506123048 23 5 0.0 0.0 0.00 0.00 0.00 92 1005.4
20260506121546 23 5 0.0 0.0 0.00 0.00 0.00 92 1005.5
20260506120046 23 5 0.0 0.0 0.00 0.00 0.00 92 1005.6
20260506114551 23 5 0.0 0.0 0.00 0.00 0.00 92 1005.4
20260506113044 23 5 0.0 0.0 0.00 0.00 0.00 92 1005.6
20260506111552 23 5 0.0 0.0 0.00 0.00 0.00 92 1005.6
20260506110042 23 5 0.0 0.0 0.00 0.00 0.00 91 1005.5
20260506104542 23 5 0.0 0.0 0.00 0.00 0.00 91 1005.4
20260506103039 23 5 0.0 0.0 0.00 0.00 0.00 91 1005.2
20260506101539 23 5 0.0 0.0 0.00 0.00 0.00 91 1005.2
20260506100037 23 5 0.0 0.0 0.00 0.00 0.00 91 1005.0
20260506094536 23 5 0.0 0.0 0.00 0.00 0.00 91 1004.7
20260506093035 23 5 0.0 0.0 0.00 0.00 0.00 91 1004.6
20260506091535 23 5 0.0 0.0 0.00 0.00 0.00 91 1004.4
20260506090034 23 5 0.0 0.0 0.00 0.00 0.00 91 1004.2
20260506084533 23 5 0.0 0.0 0.00 0.00 0.00 91 1004.3
20260506083033 23 5 0.0 0.0 0.00 0.00 0.00 91 1004.3
20260506081537 23 5 0.0 0.0 0.00 0.00 0.00 91 1004.3
20260506073032 23 5 0.0 0.0 0.00 0.00 0.00 90 1004.7
20260506071532 23 5 0.0 0.0 0.00 0.00 0.00 90 1004.7
20260506061534 23 5 0.0 0.0 0.00 0.00 0.00 90 1004.8
20260506044520 24 5 0.0 0.0 0.00 0.00 0.00 90 1004.7
20260506043017 24 5 0.0 0.0 0.00 0.00 0.00 89 1004.7
20260506041517 24 5 0.0 0.0 0.00 0.00 0.00 89 1004.5
20260506040024 25 5 0.0 0.0 0.00 0.00 0.00 88 1004.4
20260506034517 25 5 0.0 0.0 0.00 0.00 0.00 88 1004.1
20260506033016 25 5 0.0 0.0 0.00 0.00 0.00 87 1004.2
20260506031521 25 5 0.0 0.0 0.00 0.00 0.00 86 1004.0
20260506030016 25 5 0.0 0.0 0.00 0.00 0.00 85 1003.8
20260506024529 25 5 0.0 0.0 0.00 0.00 0.00 84 1003.6
20260506023013 25 5 0.0 0.0 0.00 0.00 0.00 84 1003.4
20260506021513 26 5 0.0 0.0 0.00 0.00 0.00 83 1003.1
20260506020012 26 5 0.0 0.0 0.00 0.00 0.00 83 1002.7
20260506014515 26 5 0.0 0.0 0.00 0.00 0.00 82 1002.6
20260506013011 26 5 0.0 0.0 0.00 0.00 0.00 81 1002.6
20260506011520 27 5 0.0 0.0 0.00 0.00 0.00 80 1002.6